Hourly Weather Kizilov

Today, 30 July, Friday

Time Temperature Precipitation Wind Pressure Humidity
00:00 +23°C° 0 mm 1 mps 736 mmHg 46%
01:00 +22°C° 0 mm 1 mps 736 mmHg 48%
02:00 +22°C° 0 mm 1 mps 736 mmHg 49%
03:00 +21°C° 0 mm 1 mps 735 mmHg 51%
04:00 +21°C° 0 mm 1 mps 735 mmHg 52%
05:00 +22°C° 0 mm 1 mps 736 mmHg 54%
06:00 +22°C° 0 mm 1 mps 736 mmHg 55%
07:00 +24°C° 0 mm 2 mps 736 mmHg 47%
08:00 +26°C° 0 mm 2 mps 736 mmHg 38%
09:00 +29°C° 0 mm 3 mps 736 mmHg 30%
10:00 +30°C° 0 mm 4 mps 736 mmHg 28%
11:00 +32°C° 0 mm 5 mps 736 mmHg 26%
12:00 +33°C° 0 mm 5 mps 735 mmHg 24%
13:00 +33°C° 0 mm 5 mps 735 mmHg 23%
14:00 +33°C° 0 mm 4 mps 735 mmHg 22%
15:00 +34°C° 0 mm 4 mps 734 mmHg 22%
16:00 +33°C° 0 mm 3 mps 734 mmHg 24%
17:00 +33°C° 0 mm 3 mps 734 mmHg 27%
18:00 +31°C° 0 mm 2 mps 734 mmHg 30%
19:00 +29°C° 0 mm 2 mps 734 mmHg 35%
20:00 +27°C° 0 mm 1 mps 734 mmHg 40%
21:00 +25°C° 0 mm 1 mps 734 mmHg 45%
22:00 +25°C° 0 mm 1 mps 734 mmHg 46%
23:00 +24°C° 0 mm 1 mps 734 mmHg 48%

Tomorrow, 31 July, Saturday

Time Temperature Precipitation Wind Pressure Humidity
00:00 +24°C° 0 mm 1 mps 734 mmHg 49%
01:00 +23°C° 0 mm 1 mps 734 mmHg 51%
02:00 +23°C° 0 mm 1 mps 734 mmHg 52%
03:00 +22°C° 0 mm 1 mps 733 mmHg 54%
04:00 +22°C° 0 mm 1 mps 734 mmHg 55%
05:00 +23°C° 0 mm 1 mps 734 mmHg 56%
06:00 +23°C° 0 mm 1 mps 734 mmHg 57%
07:00 +25°C° 0 mm 1 mps 734 mmHg 51%
08:00 +27°C° 0 mm 1 mps 734 mmHg 46%
09:00 +28°C° 0 mm 0 mps 734 mmHg 40%
10:00 +31°C° 0 mm 1 mps 734 mmHg 37%
11:00 +32°C° 0 mm 2 mps 734 mmHg 34%
12:00 +34°C° 0 mm 2 mps 734 mmHg 30%
13:00 +35°C° 0 mm 2 mps 734 mmHg 29%
14:00 +35°C° 0 mm 2 mps 734 mmHg 28%
15:00 +36°C° 0 mm 2 mps 733 mmHg 27%
16:00 +35°C° 0 mm 3 mps 733 mmHg 28%
17:00 +35°C° 0 mm 3 mps 733 mmHg 29%
18:00 +34°C° 0 mm 3 mps 733 mmHg 31%
19:00 +31°C° 0 mm 2 mps 734 mmHg 34%
20:00 +29°C° 0 mm 2 mps 734 mmHg 37%
21:00 +27°C° 0 mm 1 mps 734 mmHg 41%
22:00 +27°C° 0 mm 1 mps 734 mmHg 41%
23:00 +26°C° 0 mm 1 mps 734 mmHg 42%

Day after tomorrow, 1 August, Sunday

Time Temperature Precipitation Wind Pressure Humidity
00:00 +24°C° 0 mm 0 mps 734 mmHg 42%
01:00 +25°C° 0 mm 1 mps 734 mmHg 43%
02:00 +25°C° 0 mm 1 mps 734 mmHg 43%
03:00 +24°C° 0 mm 1 mps 734 mmHg 44%
04:00 +24°C° 0 mm 1 mps 734 mmHg 45%
05:00 +24°C° 0 mm 1 mps 734 mmHg 46%
06:00 +25°C° 0 mm 1 mps 734 mmHg 47%
07:00 +27°C° 0 mm 1 mps 735 mmHg 41%
08:00 +29°C° 0 mm 2 mps 735 mmHg 36%
09:00 +31°C° 0 mm 3 mps 735 mmHg 30%
10:00 +34°C° 0 mm 3 mps 735 mmHg 28%
11:00 +35°C° 0 mm 3 mps 735 mmHg 25%
12:00 +36°C° 0 mm 4 mps 735 mmHg 22%
13:00 +37°C° 0 mm 4 mps 734 mmHg 22%
14:00 +37°C° 0 mm 4 mps 734 mmHg 22%
15:00 +37°C° 0 mm 3 mps 734 mmHg 22%
16:00 +37°C° 0 mm 3 mps 734 mmHg 24%
17:00 +36°C° 0 mm 3 mps 734 mmHg 26%
18:00 +36°C° 0 mm 3 mps 734 mmHg 27%
19:00 +34°C° 0 mm 3 mps 734 mmHg 31%
20:00 +31°C° 0 mm 2 mps 734 mmHg 35%
21:00 +29°C° 0 mm 1 mps 734 mmHg 38%
22:00 +28°C° 0 mm 2 mps 734 mmHg 39%
23:00 +27°C° 0 mm 2 mps 734 mmHg 40%

2 August, Monday

Time Temperature Precipitation Wind Pressure Humidity
00:00 +27°C° 0 mm 2 mps 733 mmHg 41%
01:00 +26°C° 0 mm 1 mps 733 mmHg 42%
02:00 +26°C° 0 mm 1 mps 733 mmHg 43%
03:00 +26°C° 0 mm 1 mps 733 mmHg 45%
04:00 +26°C° 0 mm 1 mps 734 mmHg 46%
05:00 +25°C° 0 mm 1 mps 734 mmHg 48%
06:00 +25°C° 0 mm 1 mps 734 mmHg 50%
07:00 +28°C° 0 mm 1 mps 734 mmHg 44%
08:00 +30°C° 0 mm 2 mps 735 mmHg 39%
09:00 +32°C° 0 mm 2 mps 735 mmHg 34%
10:00 +34°C° 0 mm 2 mps 735 mmHg 31%
11:00 +35°C° 0 mm 2 mps 734 mmHg 29%
12:00 +37°C° 0 mm 2 mps 734 mmHg 26%
13:00 +37°C° 0 mm 2 mps 734 mmHg 25%
14:00 +38°C° 0 mm 2 mps 734 mmHg 23%
15:00 +37°C° 0 mm 1 mps 733 mmHg 21%
16:00 +38°C° 0 mm 2 mps 733 mmHg 22%
17:00 +38°C° 0 mm 2 mps 733 mmHg 23%
18:00 +37°C° 0 mm 2 mps 733 mmHg 24%
19:00 +35°C° 0 mm 2 mps 733 mmHg 28%
20:00 +32°C° 0 mm 2 mps 733 mmHg 32%
21:00 +29°C° 0 mm 2 mps 733 mmHg 36%
22:00 +29°C° 0 mm 2 mps 733 mmHg 38%
23:00 +28°C° 0 mm 2 mps 733 mmHg 40%

3 August, Tuesday

Time Temperature Precipitation Wind Pressure Humidity
00:00 +28°C° 0 mm 2 mps 733 mmHg 41%
01:00 +27°C° 0 mm 2 mps 733 mmHg 42%
02:00 +27°C° 0 mm 1 mps 733 mmHg 44%
03:00 +26°C° 0 mm 1 mps 733 mmHg 45%
04:00 +26°C° 0 mm 1 mps 734 mmHg 47%
05:00 +26°C° 0 mm 1 mps 734 mmHg 49%
06:00 +26°C° 0 mm 1 mps 734 mmHg 51%
07:00 +28°C° 0 mm 1 mps 734 mmHg 45%
08:00 +31°C° 0 mm 1 mps 734 mmHg 40%
09:00 +31°C° 0 mm 0 mps 735 mmHg 35%
10:00 +35°C° 0 mm 1 mps 734 mmHg 32%
11:00 +36°C° 0 mm 1 mps 734 mmHg 29%
12:00 +37°C° 0 mm 1 mps 734 mmHg 25%
13:00 +39°C° 0 mm 1 mps 734 mmHg 24%
14:00 +39°C° 0 mm 1 mps 734 mmHg 23%
15:00 +40°C° 0 mm 1 mps 733 mmHg 22%
16:00 +39°C° 0 mm 1 mps 733 mmHg 23%
17:00 +38°C° 0 mm 2 mps 733 mmHg 24%
18:00 +38°C° 0 mm 2 mps 733 mmHg 25%
19:00 +36°C° 0 mm 2 mps 733 mmHg 28%
20:00 +35°C° 0 mm 2 mps 734 mmHg 31%
21:00 +32°C° 0 mm 2 mps 734 mmHg 34%
22:00 +32°C° 0 mm 2 mps 734 mmHg 34%
23:00 +31°C° 0 mm 3 mps 734 mmHg 35%

4 August, Wednesday

Time Temperature Precipitation Wind Pressure Humidity
00:00 +31°C° 0 mm 3 mps 734 mmHg 35%
01:00 +30°C° 0 mm 3 mps 735 mmHg 37%
02:00 +29°C° 0 mm 3 mps 735 mmHg 40%
03:00 +28°C° 0 mm 3 mps 735 mmHg 42%
04:00 +27°C° 0 mm 3 mps 735 mmHg 45%
05:00 +27°C° 0 mm 3 mps 736 mmHg 48%
06:00 +26°C° 0 mm 3 mps 736 mmHg 51%
07:00 +28°C° 0 mm 4 mps 736 mmHg 48%
08:00 +29°C° 0 mm 4 mps 737 mmHg 44%
09:00 +32°C° 0 mm 4 mps 737 mmHg 41%
10:00 +34°C° 0 mm 4 mps 737 mmHg 37%
11:00 +35°C° 0 mm 4 mps 737 mmHg 33%
12:00 +37°C° 0 mm 4 mps 737 mmHg 29%
13:00 +38°C° 0 mm 4 mps 737 mmHg 27%
14:00 +38°C° 0 mm 4 mps 736 mmHg 25%
15:00 +40°C° 0 mm 4 mps 736 mmHg 22%
16:00 +38°C° 0 mm 4 mps 736 mmHg 23%
17:00 +38°C° 0 mm 4 mps 736 mmHg 25%
18:00 +37°C° 0 mm 4 mps 736 mmHg 26%
19:00 +35°C° 0 mm 4 mps 736 mmHg 30%
20:00 +33°C° 0 mm 3 mps 737 mmHg 35%
21:00 +30°C° 0 mm 2 mps 737 mmHg 39%
22:00 +29°C° 0 mm 2 mps 737 mmHg 42%
23:00 +28°C° 0 mm 2 mps 737 mmHg 46%
Show more